FLOCK 2E-4 (41487 NORAD) Tracking and Keplerian Element Data

This shows tracking and keplerian element data for the satellite.

Feedback or suggestion? Click here.




ElementValue
Catalog41487
NameFLOCK 2E-4
Epoch Orbit10392
Epoch Day70.31675234
Epoch Year2018
RAAN75.1635
Inclination51.6109
Eccentricity0.000338
Argument of Perigee16.6517
Mean Anonmoly345.1183
Mean Motion16.41744848
Decay Rate0.14212785
L11 41487U 98067JH 18070.31675234 .14212785 12501-4 82846-3 0 9995
L22 41487 51.6109 75.1635 0003380 16.6517 345.1183 16.41744848103922

Live tracking and technical data element details for FLOCK 2E-4 (NORAD 41487). FLOCK 2E-4 can be tracked NOW for your location showing map with azimuth and elevation plus other details from your city location.

Track the satellite on the map from your city or location and see movement details for azimuth, elevation, latitude, longitude, range, height, and movement on the map or in text.







IsCatalogInMostPopularTable: catalog: 41487, numindb: 75
Update: records affected: 1



GetName: 41487 FLOCK 2E-4

Hit Count: updated at: Mon, 20 Aug 2018 00:45:15 GMT